Regional Weather Roundup
Issued by NWS Memphis, TN

Home | Current Version | Previous Version | Text Only | Print | Product List | Glossary On
Versions: 1 2 3 4 5 6 7 8 9 10 11 12 13 14 15 16 17 18 19 20 21 22 23 24 25 26 27 28 29 30 31 32 33 34 35 36 37 38 39 40 41 42 43 44 45 46 47 48 49 50
000
ASUS44 KMEG 261110
RWRMEG
MEMPHIS CWA HOURLY WEATHER ROUNDUP
NATIONAL WEATHER SERVICE MEMPHIS TN
600 AM CDT FRI MAY 26 2017

...WEST TENNESSEE...

CITY           SKY/WX    TMP DP  RH WIND       PRES   REMARKS
MEMPHIS INTL   PTCLDY    65  59  81 S8        29.88R
NWS MEMPHIS      N/A     65 N/A N/A MISG        N/A
JACKSON        CLEAR     58  55  90 VRB5      29.90R
COVINGTON      CLEAR     64  57  77 S7        29.87R
BOLIVAR        PTCLDY    57  54  88 SE3       29.90R
LEXINGTON      MOCLDY    55  54  94 MISG      29.92S
SELMER         PTCLDY    59  54  82 S6        29.92S
SAVANNAH       MOCLDY    57  54  88 S6        29.92S
DYERSBURG        N/A    N/A N/A N/A MISG        N/A
UNION CITY     PTCLDY    61  55  82 SE7       29.87S
PARIS          CLEAR     59  54  82 S8        29.89S
HUNTINGDON     MOCLDY    59  55  88 S5        29.90R


...EASTERN ARKANSAS...

CITY           SKY/WX    TMP DP  RH WIND       PRES   REMARKS
JONESBORO      CLEAR     64  59  83 S7        29.84R
WEST MEMPHIS   PTCLDY    65  61  87 S10       29.86R
BATESVILLE     MOCLDY    66  61  82 SE9       29.80S
NEWPORT        CLEAR     66  62  87 S13       29.82R
WALNUT RIDGE   CLEAR     64  57  77 S9        29.82R
BLYTHEVILLE    CLEAR     65  58  78 S10       29.86R
SEARCY         MOCLDY    67  65  93 S9        29.82S
STUTTGART      CLEAR     70  54  56 S16       29.84S
PINE BLUFF     PTCLDY    67  63  87 S13       29.84R
MONTICELLO     CLEAR     66  63  90 S7        29.86S


...NORTH MISSISSIPPI...

CITY           SKY/WX    TMP DP  RH WIND       PRES   REMARKS
TUPELO         CLEAR     58  54  86 SE3       29.93R
OXFORD         CLEAR     59  55  88 SE5       29.94R
BATESVILLE     CLEAR     57  56  95 CALM      29.92R
TUNICA         CLEAR     61  57  88 S5        29.89R
CLARKSDALE       N/A     64  64 100 MISG      29.89R
CORINTH        CLOUDY    57  55  94 CALM      29.93R
GREENWOOD      PTCLDY    63  61  93 S7        29.92R
COLUMBUS       CLEAR     56  56  99 SE3       29.95R
STARKVILLE     CLEAR     55  54  94 CALM      29.96R
GOLDEN TRIANGL CLEAR     59  52  77 S5        29.92R


...SOUTHEAST MISSOURI...

CITY           SKY/WX    TMP DP  RH WIND       PRES   REMARKS
KENNETT        PTCLDY    64  59  82 S7        29.83R
MALDEN         MOCLDY    64  57  77 S7        29.84S
WEST PLAINS    CLOUDY    63  59  87 S6        29.79F
POPLAR BLUFF   CLEAR     61  58  90 CALM      29.82S
CAPE GIRARDEAU MOCLDY    61  55  81 S7        29.83F


...NORTHWEST ALABAMA...

CITY           SKY/WX    TMP DP  RH WIND       PRES   REMARKS
MUSCLE SHOALS  CLEAR     56  52  86 E3        29.97R


...MIDDLE TENNESSEE...

CITY           SKY/WX    TMP DP  RH WIND       PRES   REMARKS
NASHVILLE      PTCLDY    54  52  93 S7        29.95R
CLARKSVILLE    CLEAR     53  50  89 SE5       29.92R
COLUMBIA       CLEAR     54  54 100 CALM      29.94R


...WESTERN KENTUCKY...

CITY           SKY/WX    TMP DP  RH WIND       PRES   REMARKS
PADUCAH        CLEAR     62  53  72 S6        29.85S
FORT CAMPBELL  CLEAR     58  53  83 CALM      29.91R


...CENTRAL ARKANSAS...

CITY           SKY/WX    TMP DP  RH WIND       PRES   REMARKS
LITTLE ROCK    MOCLDY    67  64  90 S15G22    29.80R


SKY/WX REPORTED AS FAIR MEANS FEW OR NO CLOUDS BELOW
12 THOUSAND FEET.





USA.gov is the U.S. government's official web portal to all federal, state and local government web resources and services.